Weather History for Litchfield, MN

Change the Weather History Date:

Sunday, July 7, 2013

  Actual Average Record
Temperature  
Mean Temperature 80 °F -  
Max Temperature 89 °F 84 °F 99 °F (1988)
Min Temperature 71 °F 62 °F 47 °F (1958)
Cooling Degree Days 15    
Growing Degree Days 30 (Base 50)    
Moisture  
Dew Point 71 °F    
Average Humidity 75    
Maximum Humidity 94    
Minimum Humidity 58    
Precipitation  
Precipitation 0.00 in - - ()
Sea Level Pressure  
Sea Level Pressure 29.86 in    
Wind  
Wind Speed 1 mph (NW)    
Max Wind Speed 16 mph    
Max Gust Speed 20 mph    
Visibility 10 miles    
Events Thunderstorm    
Averages and records for this station are not official NWS values.
T = Trace of Precipitation, MM = Missing Value Source: NWS Daily Summary

Daily Weather History Graph

Daily Weather History Graph

Search for Another Location

Airport:

Trip Planner

Search our weather history database for the weather conditions in past years. The results will help you decide how hot, cold, wet, or windy it might be!

Date:

Astronomy

Jul. 07, 2013 Rise Set
Actual Time 5:38 AM CDT 9:06 PM CDT
Civil Twilight 5:02 AM CDT 9:43 PM CDT
Nautical Twilight 4:13 AM CDT 10:31 PM CDT
Astronomical Twilight 3:11 AM CDT 11:33 PM CDT
Moon 5:18 AM CDT (7/7) 8:27 PM CDT (7/7)
Length of Visible Light 16h 41m
Length of Day
15h 27m
Waning Crescent, 0% of the Moon is Illuminated
Jul 7
Waning Crescent
Jul 8
New
Jul 15
First Quarter
Jul 22
Full
Jul 29
Last Quarter

Hourly Weather History & Observations

Time (CDT) Temp. Heat Index Dew Point Humidity Pressure Visibility Wind Dir Wind Speed Gust Speed Precip Events Conditions
12:13 AM 78.8 °F - 69.8 °F 74% 29.83 in 10.0 mi Calm Calm - N/A   Clear
12:33 AM 78.8 °F - 69.8 °F 74% 29.83 in 10.0 mi SSE 3.5 mph - N/A   Clear
12:52 AM 78.8 °F - 69.8 °F 74% 29.83 in 10.0 mi Calm Calm - N/A   Clear
1:13 AM 78.8 °F - 69.8 °F 74% 29.83 in 10.0 mi Calm Calm - N/A   Clear
1:33 AM 77.0 °F - 69.8 °F 78% 29.83 in 10.0 mi Calm Calm - N/A   Clear
1:52 AM 77.0 °F - 69.8 °F 78% 29.83 in 10.0 mi Calm Calm - N/A   Clear
2:13 AM 77.0 °F - 69.8 °F 78% 29.83 in 10.0 mi Calm Calm - N/A   Clear
2:33 AM 77.0 °F - 69.8 °F 78% 29.83 in 10.0 mi Calm Calm - N/A   Clear
2:53 AM 77.0 °F - 69.8 °F 78% 29.83 in 10.0 mi Calm Calm - N/A   Clear
3:13 AM 77.0 °F - 69.8 °F 78% 29.83 in 10.0 mi Calm Calm - N/A   Clear
3:32 AM 77.0 °F - 69.8 °F 78% 29.83 in 10.0 mi Calm Calm - N/A   Clear
3:53 AM 75.2 °F - 69.8 °F 83% 29.83 in 10.0 mi Calm Calm - N/A   Clear
4:12 AM 75.2 °F - 69.8 °F 83% 29.84 in 10.0 mi SSW 3.5 mph - N/A   Clear
4:33 AM 73.4 °F - 69.8 °F 88% 29.84 in 10.0 mi Calm Calm - N/A   Clear
4:53 AM 73.4 °F - 69.8 °F 88% 29.84 in 10.0 mi Calm Calm - N/A   Clear
5:12 AM 73.4 °F - 69.8 °F 88% 29.84 in 10.0 mi Calm Calm - N/A   Clear
5:33 AM 73.4 °F - 69.8 °F 88% 29.84 in 10.0 mi Calm Calm - N/A   Clear
5:53 AM 73.4 °F - 69.8 °F 88% 29.84 in 10.0 mi Calm Calm - N/A   Clear
6:13 AM 73.4 °F - 69.8 °F 88% 29.84 in 7.0 mi Calm Calm - N/A   Clear
6:33 AM 73.4 °F - 69.8 °F 88% 29.84 in 7.0 mi Calm Calm - N/A   Clear
6:53 AM 73.4 °F - 69.8 °F 88% 29.84 in 10.0 mi Calm Calm - N/A   Clear
7:12 AM 73.4 °F - 69.8 °F 88% 29.84 in 7.0 mi Calm Calm - N/A   Clear
7:33 AM 75.2 °F - 69.8 °F 83% 29.85 in 10.0 mi SSW 3.5 mph - N/A   Clear
7:53 AM 75.2 °F - 69.8 °F 83% 29.86 in 10.0 mi Calm Calm - N/A   Clear
8:12 AM 77.0 °F - 69.8 °F 78% 29.85 in 10.0 mi Calm Calm - N/A   Clear
8:33 AM 77.0 °F - 69.8 °F 78% 29.85 in 10.0 mi Calm Calm - N/A   Clear
8:53 AM 78.8 °F - 69.8 °F 74% 29.86 in 10.0 mi Calm Calm - N/A   Clear
9:12 AM 78.8 °F - 71.6 °F 78% 29.86 in 10.0 mi SW 3.5 mph - N/A   Clear
9:33 AM 78.8 °F - 71.6 °F 78% 29.86 in 10.0 mi Calm Calm - N/A   Clear
9:53 AM 80.6 °F 83.9 °F 69.8 °F 70% 29.86 in 10.0 mi SW 3.5 mph - N/A   Clear
10:12 AM 80.6 °F 84.6 °F 71.6 °F 74% 29.86 in 10.0 mi Calm Calm - N/A   Clear
10:33 AM 82.4 °F 87.2 °F 71.6 °F 70% 29.86 in 10.0 mi Calm Calm - N/A   Scattered Clouds
10:53 AM 82.4 °F 87.2 °F 71.6 °F 70% 29.85 in 10.0 mi Calm Calm - N/A   Scattered Clouds
11:12 AM 82.4 °F 87.2 °F 71.6 °F 70% 29.86 in 10.0 mi Calm Calm - N/A   Clear
11:33 AM 84.2 °F 89.6 °F 71.6 °F 66% 29.86 in 10.0 mi Calm Calm - N/A   Clear
11:53 AM 84.2 °F 89.6 °F 71.6 °F 66% 29.85 in 10.0 mi Calm Calm - N/A   Clear
12:12 PM 84.2 °F 89.6 °F 71.6 °F 66% 29.86 in 10.0 mi Calm Calm - N/A   Clear
12:33 PM 86.0 °F 91.8 °F 71.6 °F 62% 29.86 in 7.0 mi Calm Calm - N/A   Scattered Clouds
12:53 PM 86.0 °F 91.8 °F 71.6 °F 62% 29.87 in 10.0 mi Calm Calm - N/A   Scattered Clouds
1:12 PM 86.0 °F 91.8 °F 71.6 °F 62% 29.86 in 10.0 mi Calm Calm - N/A   Scattered Clouds
1:33 PM 87.8 °F 95.6 °F 73.4 °F 62% 29.87 in 10.0 mi Calm Calm - N/A   Scattered Clouds
1:53 PM 87.8 °F 93.8 °F 71.6 °F 58% 29.86 in 10.0 mi Calm Calm - N/A   Scattered Clouds
2:12 PM 87.8 °F 95.6 °F 73.4 °F 62% 29.86 in 10.0 mi SE 3.5 mph - N/A   Mostly Cloudy
2:33 PM 87.8 °F 95.6 °F 73.4 °F 62% 29.86 in 10.0 mi SE 4.6 mph - N/A   Scattered Clouds
2:53 PM 87.8 °F 95.6 °F 73.4 °F 62% 29.86 in 10.0 mi Calm Calm - N/A   Clear
3:12 PM 87.8 °F 95.6 °F 73.4 °F 62% 29.86 in 10.0 mi Calm Calm - N/A   Scattered Clouds
3:33 PM 87.8 °F 95.6 °F 73.4 °F 62% 29.86 in 10.0 mi Calm Calm - N/A   Scattered Clouds
3:53 PM 87.8 °F 93.8 °F 71.6 °F 58% 29.84 in 7.0 mi Calm Calm - N/A   Clear
4:12 PM 87.8 °F 95.6 °F 73.4 °F 62% 29.85 in 10.0 mi Calm Calm - N/A   Clear
4:33 PM 87.8 °F 95.6 °F 73.4 °F 62% 29.85 in 10.0 mi WNW 4.6 mph - N/A   Clear
4:53 PM 86.0 °F 93.4 °F 73.4 °F 66% 29.85 in 10.0 mi Calm Calm - N/A   Clear
5:12 PM 89.6 °F 98.2 °F 73.4 °F 59% 29.85 in 10.0 mi WNW 4.6 mph - N/A   Clear
5:33 PM 87.8 °F 95.6 °F 73.4 °F 62% 29.85 in 10.0 mi NNW 6.9 mph - N/A   Clear
5:53 PM 87.8 °F 97.6 °F 75.2 °F 66% 29.86 in 10.0 mi NW 9.2 mph - N/A   Clear
6:12 PM 84.2 °F 90.9 °F 73.4 °F 70% 29.86 in 10.0 mi North 16.1 mph 19.6 mph N/A Thunderstorm Scattered Clouds
6:33 PM 80.6 °F 83.9 °F 69.8 °F 70% 29.87 in 10.0 mi NNE 12.7 mph - N/A   Clear
6:53 PM 82.4 °F 86.3 °F 69.8 °F 66% 29.85 in 10.0 mi Calm Calm - N/A   Clear
7:12 PM 82.4 °F 86.3 °F 69.8 °F 66% 29.84 in 10.0 mi Calm Calm - N/A   Clear
7:33 PM 82.4 °F 87.2 °F 71.6 °F 70% 29.86 in 10.0 mi Calm Calm - N/A   Clear
7:53 PM 82.4 °F 87.2 °F 71.6 °F 70% 29.87 in 10.0 mi North 5.8 mph - N/A   Clear
8:12 PM 80.6 °F 83.9 °F 69.8 °F 70% 29.89 in 10.0 mi ENE 8.1 mph - N/A   Clear
8:33 PM 78.8 °F - 69.8 °F 74% 29.90 in 10.0 mi East 6.9 mph - N/A   Clear
8:53 PM 77.0 °F - 69.8 °F 78% 29.90 in 10.0 mi East 3.5 mph - N/A   Clear
9:12 PM 75.2 °F - 69.8 °F 83% 29.90 in 10.0 mi Calm Calm - N/A   Clear
9:33 PM 75.2 °F - 69.8 °F 83% 29.90 in 10.0 mi Calm Calm - N/A   Clear
9:53 PM 75.2 °F - 69.8 °F 83% 29.91 in 10.0 mi Calm Calm - N/A   Clear
10:12 PM 73.4 °F - 69.8 °F 88% 29.91 in 10.0 mi Calm Calm - N/A   Clear
10:33 PM 73.4 °F - 69.8 °F 88% 29.92 in 10.0 mi Calm Calm - N/A   Clear
10:53 PM 73.4 °F - 69.8 °F 88% 29.93 in 10.0 mi NNW 3.5 mph - N/A   Clear
11:12 PM 71.6 °F - 69.8 °F 94% 29.93 in 10.0 mi Calm Calm - N/A   Clear
11:33 PM 73.4 °F - 69.8 °F 88% 29.92 in 10.0 mi WNW 3.5 mph - N/A   Clear
11:53 PM 71.6 °F - 69.8 °F 94% 29.93 in 10.0 mi Calm Calm - N/A   Scattered Clouds